THOR ABLESTAR DEB, 154

Orbit data source: Space-Track

THOR ABLESTAR DEB, 154 is space debris in LEO originally from a launch on Thu, 29 Jun 1961 UTC launched from the Air Force Eastern Test Range (AFETR). Debris objects in space refer to the collection of defunct objects orbiting the Earth. Examples of debris include non-operational satellites, rocket bodies, and fragments generated from explosions, collisions, or faulty payload assembly.

Loading next visibility...
Identifier
154, 1961-015AQ
Orbit
LEO
Last TLE update
11 hours ago
Origin
Manufacturer
Unknown
Mission
Spacecraft
Bus & Motor
Unknown
Mass
Unknown
Launch date (UTC)
1961-06-29 (64 years ago)
Launch vehicle
Unknown
Launch site
Air Force Eastern Test Range (AFETR)
Object type
Payload
Rocket body
Debris
Shape & HBR
Unknown
Radar Cross Section
Medium (>0.1 m² and <1 m²)

Expand to show TLE details & history

TLE from 11 hours ago
0 THOR ABLESTAR DEB
1 00154U 61015AQ  25182.75342812  .00000267  00000-0  20447-3 0  9998
2 00154  66.6592 316.1898 0090287 256.6831 102.4175 14.06045612267362
Epoch: 2025-07-01T18:04Z
TLE epoch observation values (Epoch: 2025-07-01T18:04:56.189Z)
Latitude
Longitude
124.91132°
Altitude
889.657 km
Speed
7.4 km/s
True Right ascension
21h 04m 45s
True Declination
0° 00' 00"
Sunlit
Object was in full shadow at epoch
Visualization orbit readout
Latitude
59.26347°
Longitude
-102.43171°
Altitude
935.965 km
Speed
7.362 km/s
Apparent Right ascension
05h 08m 36s
Apparent Declination
14° 27' 06"
Sunlit
Object is in daylight
Visualization observer readout
Local Sidereal Time
16:32:55
Azimuth
349.439° N
Elevation
-35.002°
Doppler factor
1
Orbital elements
Apogee altitude
936.786 km
Perigee altitude
805.88 km
Semi-major axis
7,249.47 km
Eccentricity
0.00903
Inclination
66.6592°
RAAN
316.1898°
Arg. of periapsis
256.6831°
True anomaly
Unknown
Mean anomaly
102.4175°
Eccentric anomaly
Unknown
Mean motion
3.51628 °/min
Orbital period
102.38 mins
BSTAR
0.00020447
Loading maneuver chart data...
Loading SW <> Apogee altitude chart data...

THOR ABLESTAR DEB Visibility forecast

Observer location: undefined°, undefined°

Span
Click to sort rows by Start time (UTC) header in descending order
Start Az.
Max El. time (UTC)
Max El. Az.
Max El.
End time (UTC)
End Az.
9 mins2025-07-02 09:33:26.967Z164.801° S2025-07-02 09:38:26.967Z102.852° ESE26.773°2025-07-02 09:42:26.967Z54.623° ENE
9 mins2025-07-02 11:19:26.967Z243.378° WSW2025-07-02 11:23:26.967Z311.975° NW35.152°2025-07-02 11:28:26.967Z15.802° NNE
8 mins2025-07-02 18:32:26.967Z1.654° NNE2025-07-02 18:35:26.967Z42.217° NE26.357°2025-07-02 18:40:26.967Z105.997° ESE
9 mins2025-07-02 20:17:26.967Z312.508° NW2025-07-02 20:21:26.967Z243.848° WSW36.615°2025-07-02 20:26:26.967Z176.833° S
|